[Show "Revision History"] [Show "General Page Infos"] [Show "Page hits and edits"]

Revision History

Showing page edit history entries from 1 to 57 out of 57 entries total. (5 | 10 | 25 | 50 | 100 | 200 items per page)

# Date Size Editor Comment Action
57 2011-10-18 16:48:47 24580 to previous NoelBergman   view
56 2011-10-17 16:40:12 24545 to previous BenjaminHindman   view
55 2011-10-17 14:52:32 23641 to previous OwenOmalley   view
54 2011-10-17 12:53:51 23632 to previous RossGardler Sign off OOo view
53 2011-10-16 18:45:10 23623 to previous ChrisMattmann add stub Giraph report view
52 2011-10-16 13:39:14 23160 to previous MohammadNour - BeanValidation is not scheduled to report in October according to Incubator reporting schedule view
51 2011-10-16 09:12:00 23282 to previous MohammadNour   view
50 2011-10-16 09:09:45 23259 to previous MohammadNour - Isis is not scheduled to report in October according to Incubator reporting schedule view
49 2011-10-14 15:45:14 23345 to previous AteDouma Dropping Rave report skeleton: Rave is not scheduled to report this month (group-3) view
48 2011-10-14 14:41:17 23429 to previous OlivierLamy   view
47 2011-10-14 03:09:34 22727 to previous ShantiSubramanyam Adding Olio report view
46 2011-10-13 19:16:24 22060 to previous AlanCabrera   view
45 2011-10-13 19:08:40 22045 to previous junrao   view
44 2011-10-13 12:36:45 20928 to previous BensonMargulies   view
43 2011-10-13 09:34:58 20902 to previous LewisJohnMcgibbney   view
42 2011-10-13 01:44:08 20845 to previous orcmid   view
41 2011-10-13 01:15:50 20846 to previous Mohammad K Islam   view
40 2011-10-12 19:45:01 19575 to previous RainerDoebele   view
39 2011-10-12 19:43:26 19570 to previous RainerDoebele   view
38 2011-10-12 18:31:31 18192 to previous David Fisher   view
37 2011-10-12 17:31:43 17885 to previous orcmid Added stats in OpenOffice.org committers and PPMC view
36 2011-10-12 17:10:35 17881 to previous MarcelOffermans Added the ACE board report. view
35 2011-10-12 15:23:07 16946 to previous MichaelStroucken add tashi view
34 2011-10-12 15:06:00 14632 to previous ChrisMattmann - gora is not due to report this month view
33 2011-10-12 15:02:49 14714 to previous ChrisMattmann trivial update view
32 2011-10-12 15:00:53 14816 to previous ChrisMattmann add any23 status report view
31 2011-10-12 07:16:28 12964 to previous PatrickHunt   view
30 2011-10-12 07:12:43 13044 to previous FlavioJunqueira   view
29 2011-10-12 07:11:49 13044 to previous FlavioJunqueira   view
28 2011-10-12 00:23:00 11802 to previous robweir   view
27 2011-10-11 22:20:38 10803 to previous MarcelOffermans Signed off Celix view
26 2011-10-11 21:53:58 10797 to previous AlexanderBroekhuis   view
25 2011-10-11 15:49:58 9609 to previous yegor   view
24 2011-10-10 23:42:51 9604 to previous antoine   view
23 2011-10-10 21:38:43 9596 to previous ChrisMattmann sign off on Lucy report. view
22 2011-10-10 21:30:31 9587 to previous MarvinHumphrey Make format consistent with other entries. view
21 2011-10-10 21:29:07 9585 to previous MarvinHumphrey Add Lucy to report. view
20 2011-10-10 17:21:41 8851 to previous TillWestmann   view
19 2011-10-10 06:21:42 8440 to previous StefanBodewig sign off EasyAnt report view
18 2011-10-09 20:31:03 8432 to previous robweir   view
17 2011-10-06 19:34:10 7200 to previous AlanCabrera   view
16 2011-10-06 18:34:34 7186 to previous BillieRinaldi   view
15 2011-10-06 07:11:40 7092 to previous NicolasLalevée   view
14 2011-10-06 06:54:21 6441 to previous Niklas Gustavsson   view
13 2011-10-05 21:37:26 6441 to previous JZA Links are not rendered under the current wiki format view
12 2011-10-05 21:35:45 6689 to previous JZA Added some links and more items view
11 2011-10-05 21:00:40 6441 to previous JZA Added some OpenOffice.org items from multi-platform office suites. view
10 2011-10-05 17:31:32 5497 to previous OwenOmalley   view
9 2011-10-05 17:17:19 5152 to previous JohnathanMeehan Added report for Deft; needs to be signed-off by mentor. view
8 2011-10-04 06:27:07 4313 to previous PatrickHunt   view
7 2011-10-04 06:25:31 4399 to previous PatrickHunt   view
6 2011-10-03 22:36:47 4569 to previous BillieRinaldi drafted accumulo report view
5 2011-10-03 08:54:51 3866 to previous ChrisDouglas   view
4 2011-10-02 16:33:03 3857 to previous EricYang   view
3 2011-10-02 16:31:53 3857 to previous EricYang   view
2 2011-10-01 00:43:08 2816 to previous DavidCrossley start the next template view
1 2011-06-01 04:20:53 1024 DavidCrossley add template text view